Check out our new BloomSky Weather System.

Active alerts


No alerts


Thunder radar  blitzortung!


Rain radar more information rain snow radar


Visit our other weather sites:

Template documentation
and downloads

And another site



Weather Underground History page Text

Daily Summary for January 26, 2017 Units:  Metric    English   Both
« Previous Day
Next Day »
Daily Weekly Monthly Yearly Custom
  High: Low: Average:
Temperature: -17.8 °C 5 °C 9.8 °C
Dew Point: -17.8 °C -1.8 °C 0.4 °C
Humidity: Humidity % 34 % 54 %
Wind Speed: 0 km/h 0 km/h 3.7 km/h
Wind Gust: 0 km/h - -
Wind:- - West
Pressure: 0 hPa 1019.2 hPa -
Precipitation: 0 mm    
Historical Graphs
 
 
Tabular Data for January 26, 2017
Time Temperature Dew Point Pressure Wind Wind Speed Wind Gust Humidity Rainfall Rate (Hourly)
-17.8 °C -17.8 °C 0 hPa Calm     Humidity % 0 mm
00:01 12.4 °C 2 °C 1019.2 hPa NNW 8 km/h 22.5 km/h 49 % 0 mm
00:06 12.3 °C 1.9 °C 1019.2 hPa NW 8 km/h 22.5 km/h 49 % 0 mm
00:11 12.2 °C 2.1 °C 1019.2 hPa WNW 8 km/h 20.9 km/h 50 % 0 mm
00:16 12.2 °C 2.1 °C 1019.2 hPa WNW 6.4 km/h 20.9 km/h 50 % 0 mm
00:21 12.1 °C 2 °C 1019.2 hPa WNW 8 km/h 16.1 km/h 50 % 0 mm
00:26 12.1 °C 2.3 °C 1019.2 hPa North 11.3 km/h 25.7 km/h 51 % 0 mm
00:31 12 °C 2.2 °C 1019.2 hPa NNW 12.9 km/h 25.7 km/h 51 % 0 mm
00:36 11.9 °C 2.1 °C 1019.5 hPa WNW 9.7 km/h 25.7 km/h 51 % 0 mm
00:41 11.9 °C 1.8 °C 1019.5 hPa West 4.8 km/h 20.9 km/h 50 % 0 mm
00:46 11.8 °C 1.7 °C 1019.5 hPa NNW 9.7 km/h 20.9 km/h 50 % 0 mm
00:51 11.8 °C 1.7 °C 1019.5 hPa NNW 6.4 km/h 20.9 km/h 50 % 0 mm
00:56 11.7 °C 1.9 °C 1019.5 hPa NNW 12.9 km/h 19.3 km/h 51 % 0 mm
01:01 11.6 °C 1.5 °C 1019.5 hPa WNW 14.5 km/h 19.3 km/h 50 % 0 mm
01:06 11.6 °C 1.8 °C 1019.5 hPa NW 6.4 km/h 19.3 km/h 51 % 0 mm
01:11 11.6 °C 1.8 °C 1019.5 hPa NW 3.2 km/h 19.3 km/h 51 % 0 mm
01:16 11.4 °C 1.6 °C 1019.5 hPa NNW 3.2 km/h 19.3 km/h 51 % 0 mm
01:21 11.4 °C 0.8 °C 1019.5 hPa North 11.3 km/h 22.5 km/h 48 % 0 mm
01:26 11.4 °C 0.8 °C 1019.5 hPa NW 9.7 km/h 22.5 km/h 48 % 0 mm
01:31 11.4 °C 0.5 °C 1019.5 hPa North 14.5 km/h 29 km/h 47 % 0 mm
01:36 11.3 °C 0.4 °C 1019.5 hPa NNW 12.9 km/h 29 km/h 47 % 0 mm
01:41 11.3 °C 0.4 °C 1019.5 hPa WNW 11.3 km/h 29 km/h 47 % 0 mm
01:46 11.2 °C 0.6 °C 1019.5 hPa NNW 8 km/h 20.9 km/h 48 % 0 mm
01:51 11.2 °C 0.6 °C 1019.5 hPa NW 4.8 km/h 20.9 km/h 48 % 0 mm
01:56 11.1 °C 0.5 °C 1019.5 hPa NNW 11.3 km/h 20.9 km/h 48 % 0 mm
02:01 11.1 °C 0.5 °C 1019.5 hPa NNW 11.3 km/h 20.9 km/h 48 % 0 mm
02:06 11 °C 0.4 °C 1019.5 hPa NNW 8 km/h 20.9 km/h 48 % 0 mm
02:11 10.9 °C 0.6 °C 1019.5 hPa NNW 8 km/h 20.9 km/h 49 % 0 mm
02:16 10.8 °C 0.5 °C 1019.9 hPa WNW 6.4 km/h 17.7 km/h 49 % 0 mm
02:21 10.8 °C 0.8 °C 1019.9 hPa WNW 4.8 km/h 17.7 km/h 50 % 0 mm
02:26 10.7 °C 0.7 °C 1019.9 hPa NNW 8 km/h 16.1 km/h 50 % 0 mm
02:31 10.6 °C 0.3 °C 1019.9 hPa NNW 8 km/h 19.3 km/h 49 % 0 mm
02:36 10.5 °C 0.5 °C 1019.9 hPa NW 6.4 km/h 19.3 km/h 50 % 0 mm
02:41 10.4 °C 0.4 °C 1020.2 hPa NW 9.7 km/h 19.3 km/h 50 % 0 mm
02:46 10.3 °C 0.3 °C 1020.2 hPa NW 4.8 km/h 14.5 km/h 50 % 0 mm
02:51 10.2 °C 0.2 °C 1020.2 hPa NW 9.7 km/h 14.5 km/h 50 % 0 mm
02:56 10.2 °C 0.2 °C 1020.2 hPa NW 9.7 km/h 16.1 km/h 50 % 0 mm
03:01 10.1 °C 0.1 °C 1020.2 hPa North 8 km/h 19.3 km/h 50 % 0 mm
03:06 10 °C 0.1 °C 1020.2 hPa WNW 3.2 km/h 19.3 km/h 50 % 0 mm
03:11 9.9 °C 0 °C 1020.5 hPa NW 6.4 km/h 19.3 km/h 50 % 0 mm
03:16 9.8 °C -0.1 °C 1020.5 hPa North 3.2 km/h 16.1 km/h 50 % 0 mm
03:21 9.8 °C -0.1 °C 1020.2 hPa North 6.4 km/h 17.7 km/h 50 % 0 mm
03:26 9.8 °C -0.1 °C 1020.5 hPa NNW 11.3 km/h 19.3 km/h 50 % 0 mm
03:31 9.8 °C -0.1 °C 1020.5 hPa NW 6.4 km/h 29 km/h 50 % 0 mm
03:37 9.7 °C -0.5 °C 1020.2 hPa NNW 16.1 km/h 29 km/h 49 % 0 mm
03:42 9.7 °C -0.5 °C 1020.5 hPa NW 8 km/h 29 km/h 49 % 0 mm
03:47 9.7 °C -0.2 °C 1020.5 hPa North 6.4 km/h 16.1 km/h 50 % 0 mm
03:52 9.6 °C -0.6 °C 1020.5 hPa NW 9.7 km/h 16.1 km/h 49 % 0 mm
03:57 9.6 °C -0.6 °C 1020.5 hPa NW 17.7 km/h 17.7 km/h 49 % 0 mm
04:02 9.6 °C -0.6 °C 1020.5 hPa North 12.9 km/h 25.7 km/h 49 % 0 mm
04:07 9.6 °C -0.3 °C 1020.5 hPa NW 3.2 km/h 25.7 km/h 50 % 0 mm
04:12 9.5 °C -0.4 °C 1020.5 hPa North 4.8 km/h 25.7 km/h 50 % 0 mm
04:17 9.4 °C -0.5 °C 1020.9 hPa NNE 1.6 km/h 12.9 km/h 50 % 0 mm
04:22 9.4 °C -0.8 °C 1020.9 hPa NW 6.4 km/h 14.5 km/h 49 % 0 mm
04:27 9.4 °C -0.8 °C 1021.2 hPa West 6.4 km/h 16.1 km/h 49 % 0 mm
04:32 9.3 °C -0.9 °C 1020.9 hPa NW 6.4 km/h 16.1 km/h 49 % 0 mm
04:37 9.3 °C -0.6 °C 1021.2 hPa NW 3.2 km/h 16.1 km/h 50 % 0 mm
04:42 9.2 °C -0.7 °C 1021.2 hPa NW 3.2 km/h 17.7 km/h 50 % 0 mm
04:47 9.2 °C -0.7 °C 1021.6 hPa NNW 4.8 km/h 17.7 km/h 50 % 0 mm
04:52 9.1 °C -0.5 °C 1021.6 hPa North 3.2 km/h 17.7 km/h 51 % 0 mm
04:57 9 °C -0.3 °C 1021.6 hPa Calm   14.5 km/h 52 % 0 mm
05:02 8.9 °C -0.4 °C 1021.6 hPa Calm   9.7 km/h 52 % 0 mm
05:07 8.9 °C -0.4 °C 1021.6 hPa NW 1.6 km/h 8 km/h 52 % 0 mm
05:12 8.9 °C -0.4 °C 1021.6 hPa North 3.2 km/h 9.7 km/h 52 % 0 mm
05:17 8.8 °C -0.5 °C 1021.6 hPa Calm   9.7 km/h 52 % 0 mm
05:22 8.8 °C -0.3 °C 1021.9 hPa Calm   9.7 km/h 53 % 0 mm
05:27 8.7 °C -0.6 °C 1022.2 hPa Calm   6.4 km/h 52 % 0 mm
05:32 8.7 °C -0.4 °C 1022.2 hPa Calm   6.4 km/h 53 % 0 mm
05:37 8.7 °C -0.4 °C 1022.2 hPa Calm   6.4 km/h 53 % 0 mm
05:42 8.6 °C -0.4 °C 1022.2 hPa North 1.6 km/h 8 km/h 53 % 0 mm
05:47 8.6 °C -0.4 °C 1022.2 hPa Calm   8 km/h 53 % 0 mm
05:52 8.6 °C -0.4 °C 1022.2 hPa ENE 1.6 km/h 8 km/h 53 % 0 mm
05:57 8.5 °C -0.3 °C 1022.6 hPa NNE 1.6 km/h 9.7 km/h 54 % 0 mm
06:02 8.5 °C -0.3 °C 1022.6 hPa Calm   9.7 km/h 54 % 0 mm
06:07 8.4 °C -0.4 °C 1022.9 hPa Calm   9.7 km/h 54 % 0 mm
06:12 8.4 °C -0.1 °C 1022.9 hPa Calm   4.8 km/h 55 % 0 mm
06:17 8.3 °C -0.2 °C 1022.9 hPa NE 3.2 km/h 3.2 km/h 55 % 0 mm
06:22 8.3 °C 0 °C 1022.9 hPa NNW 1.6 km/h 3.2 km/h 56 % 0 mm
06:27 8.2 °C -0.3 °C 1023.2 hPa NW 4.8 km/h 8 km/h 55 % 0 mm
06:32 8.2 °C -0.3 °C 1023.2 hPa North 3.2 km/h 8 km/h 55 % 0 mm
06:37 8.2 °C -0.3 °C 1023.2 hPa NW 3.2 km/h 8 km/h 55 % 0 mm
06:42 8.2 °C -0.3 °C 1023.6 hPa NW 1.6 km/h 8 km/h 55 % 0 mm
06:47 8.2 °C -0.3 °C 1023.6 hPa NW 4.8 km/h 8 km/h 55 % 0 mm
06:52 8.2 °C -0.1 °C 1023.6 hPa NNE 1.6 km/h 8 km/h 56 % 0 mm
06:57 8.2 °C -0.1 °C 1023.6 hPa NNW 1.6 km/h 8 km/h 56 % 0 mm
07:02 8.1 °C -0.2 °C 1023.9 hPa NW 3.2 km/h 8 km/h 56 % 0 mm
07:07 8.1 °C 0.1 °C 1023.9 hPa NNW 3.2 km/h 6.4 km/h 57 % 0 mm
07:12 8 °C 0 °C 1023.9 hPa Calm   6.4 km/h 57 % 0 mm
07:17 8 °C 0 °C 1023.9 hPa NNW 1.6 km/h 4.8 km/h 57 % 0 mm
07:22 7.9 °C -0.1 °C 1024.3 hPa NW 3.2 km/h 4.8 km/h 57 % 0 mm
07:27 7.9 °C 0.1 °C 1024.3 hPa NNW 1.6 km/h 4.8 km/h 58 % 0 mm
07:32 8 °C 0.2 °C 1024.3 hPa NNW 3.2 km/h 4.8 km/h 58 % 0 mm
07:37 7.9 °C 0.1 °C 1024.3 hPa NNW 3.2 km/h 4.8 km/h 58 % 0 mm
07:42 7.9 °C -0.1 °C 1024.3 hPa NW 3.2 km/h 6.4 km/h 57 % 0 mm
07:47 8.1 °C 0.1 °C 1024.3 hPa NNW 1.6 km/h 8 km/h 57 % 0 mm
07:52 8.1 °C -0.2 °C 1024.3 hPa NW 3.2 km/h 8 km/h 56 % 0 mm
07:57 8.2 °C -0.1 °C 1024.3 hPa NW 4.8 km/h 11.3 km/h 56 % 0 mm
08:02 8.3 °C -0.2 °C 1024.3 hPa NW 3.2 km/h 11.3 km/h 55 % 0 mm
08:08 8.3 °C -0.2 °C 1024.3 hPa NW 1.6 km/h 11.3 km/h 55 % 0 mm
08:13 8.3 °C -0.2 °C 1024.3 hPa NNW 6.4 km/h 9.7 km/h 55 % 0 mm
08:18 8.4 °C -0.1 °C 1024.6 hPa NW 1.6 km/h 8 km/h 55 % 0 mm
08:23 8.5 °C 0 °C 1024.6 hPa NW 3.2 km/h 8 km/h 55 % 0 mm
08:28 8.6 °C -0.2 °C 1024.9 hPa NNW 1.6 km/h 8 km/h 54 % 0 mm
08:33 8.7 °C -0.4 °C 1024.9 hPa NNW 6.4 km/h 8 km/h 53 % 0 mm
08:38 8.8 °C -0.3 °C 1024.9 hPa Calm   8 km/h 53 % 0 mm
08:43 8.9 °C 0.1 °C 1024.9 hPa North 4.8 km/h 9.7 km/h 54 % 0 mm
08:48 9.1 °C 0 °C 1025.3 hPa NNW 1.6 km/h 9.7 km/h 53 % 0 mm
08:53 9.2 °C -0.1 °C 1024.9 hPa NNW 1.6 km/h 9.7 km/h 52 % 0 mm
08:58 9.2 °C -0.4 °C 1025.3 hPa NNW 3.2 km/h 8 km/h 51 % 0 mm
09:03 9.2 °C -0.7 °C 1025.6 hPa NNW 6.4 km/h 8 km/h 50 % 0 mm
09:08 9.2 °C -1 °C 1025.6 hPa NNE 3.2 km/h 8 km/h 49 % 0 mm
09:13 9.3 °C -0.9 °C 1025.6 hPa NNE 8 km/h 8 km/h 49 % 0 mm
09:18 9.3 °C -0.9 °C 1025.6 hPa NE 4.8 km/h 9.7 km/h 49 % 0 mm
09:23 9.3 °C -0.9 °C 1025.6 hPa NNW 3.2 km/h 9.7 km/h 49 % 0 mm
09:28 9.4 °C -1.1 °C 1025.6 hPa NNE 6.4 km/h 9.7 km/h 48 % 0 mm
09:33 9.3 °C -0.9 °C 1026 hPa NW 4.8 km/h 11.3 km/h 49 % 0 mm
09:38 9.4 °C -0.8 °C 1026 hPa NW 9.7 km/h 11.3 km/h 49 % 0 mm
09:43 9.5 °C -0.7 °C 1026 hPa NNE 4.8 km/h 11.3 km/h 49 % 0 mm
09:48 9.5 °C -0.7 °C 1026 hPa NNW 3.2 km/h 9.7 km/h 49 % 0 mm
09:53 9.4 °C -0.5 °C 1026 hPa NW 3.2 km/h 11.3 km/h 50 % 0 mm
09:58 9.5 °C -1 °C 1026 hPa North 8 km/h 11.3 km/h 48 % 0 mm
10:03 9.4 °C -0.5 °C 1026 hPa NNE 6.4 km/h 12.9 km/h 50 % 0 mm
10:08 9.4 °C -0.8 °C 1026 hPa NNE 4.8 km/h 12.9 km/h 49 % 0 mm
10:13 9.4 °C -0.8 °C 1026.3 hPa NNE 4.8 km/h 14.5 km/h 49 % 0 mm
10:18 9.5 °C -0.7 °C 1026.3 hPa NNE 3.2 km/h 14.5 km/h 49 % 0 mm
10:23 9.6 °C -0.9 °C 1026.3 hPa NNW 8 km/h 14.5 km/h 48 % 0 mm
10:28 9.7 °C -0.5 °C 1026.6 hPa West 1.6 km/h 12.9 km/h 49 % 0 mm
10:33 9.7 °C -0.5 °C 1026.3 hPa North 6.4 km/h 16.1 km/h 49 % 0 mm
10:38 9.8 °C -0.4 °C 1026.3 hPa North 3.2 km/h 16.1 km/h 49 % 0 mm
10:43 10 °C -0.2 °C 1026.6 hPa NW 1.6 km/h 16.1 km/h 49 % 0 mm
10:48 10.1 °C -0.7 °C 1026.6 hPa NW 8 km/h 11.3 km/h 47 % 0 mm
10:53 10.3 °C -0.8 °C 1026.6 hPa NW 8 km/h 12.9 km/h 46 % 0 mm
10:58 10.4 °C -0.7 °C 1026.3 hPa NNE 9.7 km/h 14.5 km/h 46 % 0 mm
11:03 10.5 °C -0.9 °C 1026.3 hPa NNE 8 km/h 14.5 km/h 45 % 0 mm
11:08 10.6 °C -0.8 °C 1026.3 hPa NW 4.8 km/h 16.1 km/h 45 % 0 mm
11:13 10.6 °C -1.2 °C 1026.3 hPa WNW 9.7 km/h 16.1 km/h 44 % 0 mm
11:18 10.6 °C -1.2 °C 1026.3 hPa NW 6.4 km/h 17.7 km/h 44 % 0 mm
11:23 10.6 °C -1.2 °C 1026.3 hPa NNW 4.8 km/h 17.7 km/h 44 % 0 mm
11:28 10.7 °C -1.1 °C 1026.3 hPa NNE 4.8 km/h 17.7 km/h 44 % 0 mm
11:33 11 °C -0.8 °C 1026 hPa NE 8 km/h 16.1 km/h 44 % 0 mm
11:38 11.3 °C -1.2 °C 1026 hPa NW 8 km/h 16.1 km/h 42 % 0 mm
11:43 10.8 °C -1.3 °C 1026 hPa NW 3.2 km/h 16.1 km/h 43 % 0 mm
11:48 10.9 °C -1.8 °C 1026 hPa NW 11.3 km/h 16.1 km/h 41 % 0 mm
11:53 11.1 °C -1.3 °C 1026 hPa WNW 6.4 km/h 19.3 km/h 42 % 0 mm
11:58 11.2 °C -1.2 °C 1025.6 hPa North 8 km/h 19.3 km/h 42 % 0 mm
12:04 11.3 °C -1.5 °C 1025.6 hPa NNW 1.6 km/h 19.3 km/h 41 % 0 mm
12:09 11.6 °C -0.9 °C 1025.6 hPa NNW 4.8 km/h 14.5 km/h 42 % 0 mm
12:14 11.7 °C -1.1 °C 1025.3 hPa Calm   14.5 km/h 41 % 0 mm
12:19 11.9 °C -0.9 °C 1025.3 hPa NW 4.8 km/h 12.9 km/h 41 % 0 mm
12:24 11.9 °C -1.3 °C 1024.9 hPa NNW 4.8 km/h 11.3 km/h 40 % 0 mm
12:29 11.9 °C -1.3 °C 1024.9 hPa NNW 4.8 km/h 11.3 km/h 40 % 0 mm
12:34 11.9 °C -1.6 °C 1024.9 hPa West 8 km/h 12.9 km/h 39 % 0 mm
12:39 11.9 °C -1.6 °C 1024.9 hPa North 4.8 km/h 12.9 km/h 39 % 0 mm
12:44 12.2 °C -1.4 °C 1024.6 hPa NNW 4.8 km/h 12.9 km/h 39 % 0 mm
12:49 12.2 °C -1.4 °C 1024.3 hPa NNW 6.4 km/h 14.5 km/h 39 % 0 mm
12:54 12.3 °C -1.3 °C 1024.3 hPa NNW 8 km/h 14.5 km/h 39 % 0 mm
12:59 12.4 °C -0.8 °C 1024.3 hPa NNE 6.4 km/h 14.5 km/h 40 % 0 mm
13:04 12.4 °C -0.8 °C 1024.3 hPa WNW 4.8 km/h 12.9 km/h 40 % 0 mm
13:09 12.7 °C -0.9 °C 1024.3 hPa NNW 6.4 km/h 14.5 km/h 39 % 0 mm
13:14 12.8 °C -0.8 °C 1024.3 hPa North 3.2 km/h 14.5 km/h 39 % 0 mm
13:19 13.1 °C -0.5 °C 1023.9 hPa NNE 12.9 km/h 14.5 km/h 39 % 0 mm
13:24 13.3 °C -1.1 °C 1024.3 hPa NNW 4.8 km/h 12.9 km/h 37 % 0 mm
13:29 13.4 °C -1 °C 1023.9 hPa NNW 14.5 km/h 14.5 km/h 37 % 0 mm
13:34 13.4 °C -1 °C 1023.9 hPa NW 6.4 km/h 14.5 km/h 37 % 0 mm
13:39 13.6 °C -0.8 °C 1023.9 hPa North 1.6 km/h 14.5 km/h 37 % 0 mm
13:44 13.6 °C -0.8 °C 1023.6 hPa WNW 6.4 km/h 14.5 km/h 37 % 0 mm
13:49 13.8 °C -0.6 °C 1023.2 hPa NW 1.6 km/h 14.5 km/h 37 % 0 mm
13:54 13.8 °C -0.3 °C 1023.6 hPa NW 3.2 km/h 12.9 km/h 38 % 0 mm
13:59 13.9 °C -0.6 °C 1023.2 hPa NNW 3.2 km/h 12.9 km/h 37 % 0 mm
14:04 13.9 °C -0.6 °C 1023.2 hPa NW 8 km/h 12.9 km/h 37 % 0 mm
14:09 13.9 °C -0.9 °C 1023.6 hPa NNW 9.7 km/h 12.9 km/h 36 % 0 mm
14:14 13.8 °C -0.6 °C 1023.6 hPa NE 6.4 km/h 16.1 km/h 37 % 0 mm
14:19 13.9 °C -0.9 °C 1023.2 hPa WNW 3.2 km/h 16.1 km/h 36 % 0 mm
14:20 13.9 °C -0.9 °C 1023.2 hPa NNW 6.4 km/h 16.1 km/h 36 % 0 mm
14:25 13.7 °C -0.7 °C 1023.2 hPa NW 4.8 km/h 16.1 km/h 37 % 0 mm
14:30 13.8 °C -1 °C 1023.2 hPa North 6.4 km/h 16.1 km/h 36 % 0 mm
14:35 14 °C -0.8 °C 1023.2 hPa NNW 6.4 km/h 16.1 km/h 36 % 0 mm
14:40 14.2 °C -1.1 °C 1023.2 hPa West 1.6 km/h 16.1 km/h 35 % 0 mm
14:45 14.3 °C -1 °C 1023.2 hPa NW 3.2 km/h 12.9 km/h 35 % 0 mm
14:50 14.4 °C -1.3 °C 1023.2 hPa WNW 3.2 km/h 14.5 km/h 34 % 0 mm
14:55 14.4 °C -0.9 °C 1022.9 hPa ENE 4.8 km/h 14.5 km/h 35 % 0 mm
15:00 14.6 °C 0.1 °C 1022.9 hPa WNW 6.4 km/h 14.5 km/h 37 % 0 mm
15:05 14.7 °C -0.6 °C 1023.2 hPa NW 8 km/h 16.1 km/h 35 % 0 mm
15:10 14.6 °C -0.3 °C 1023.2 hPa Calm   16.1 km/h 36 % 0 mm
15:15 14.7 °C 0.2 °C 1022.9 hPa NW 4.8 km/h 16.1 km/h 37 % 0 mm
15:20 14.7 °C 0.2 °C 1023.2 hPa North 1.6 km/h 16.1 km/h 37 % 0 mm
15:25 14.2 °C -0.3 °C 1022.9 hPa NW 4.8 km/h 12.9 km/h 37 % 0 mm
15:30 14 °C -0.1 °C 1022.9 hPa North 3.2 km/h 11.3 km/h 38 % 0 mm
15:35 13.9 °C -0.2 °C 1022.9 hPa NW 1.6 km/h 11.3 km/h 38 % 0 mm
15:40 14.1 °C 0.3 °C 1022.9 hPa WNW 4.8 km/h 9.7 km/h 39 % 0 mm
15:46 14.2 °C 0.4 °C 1022.9 hPa NW 4.8 km/h 9.7 km/h 39 % 0 mm
15:51 14.1 °C 0.3 °C 1022.9 hPa NW 6.4 km/h 12.9 km/h 39 % 0 mm
15:56 13.8 °C 0.1 °C 1022.9 hPa NW 4.8 km/h 12.9 km/h 39 % 0 mm
16:01 14 °C -0.5 °C 1022.9 hPa ENE 3.2 km/h 12.9 km/h 37 % 0 mm
16:06 14.1 °C -0.8 °C 1022.9 hPa NNE 6.4 km/h 12.9 km/h 36 % 0 mm
16:11 14 °C -0.8 °C 1022.9 hPa NE 3.2 km/h 12.9 km/h 36 % 0 mm
16:16 14 °C -0.5 °C 1022.9 hPa Calm   12.9 km/h 37 % 0 mm
16:21 13.9 °C -0.6 °C 1022.9 hPa NW 9.7 km/h 12.9 km/h 37 % 0 mm
16:26 13.6 °C -1.2 °C 1022.9 hPa NW 1.6 km/h 12.9 km/h 36 % 0 mm
16:31 13.6 °C -0.8 °C 1022.9 hPa NW 4.8 km/h 12.9 km/h 37 % 0 mm
16:36 13.7 °C -0.4 °C 1022.9 hPa NW 1.6 km/h 11.3 km/h 38 % 0 mm
16:41 13.6 °C -0.5 °C 1022.9 hPa NW 1.6 km/h 11.3 km/h 38 % 0 mm
16:46 13.4 °C -0.3 °C 1022.9 hPa NW 3.2 km/h 8 km/h 39 % 0 mm
16:51 13.4 °C -0.3 °C 1022.9 hPa Calm   8 km/h 39 % 0 mm
16:57 13.4 °C -0.3 °C 1022.9 hPa Calm   6.4 km/h 39 % 0 mm
17:02 13.6 °C -0.1 °C 1022.9 hPa NNW 1.6 km/h 6.4 km/h 39 % 0 mm
17:07 13.6 °C -0.1 °C 1022.9 hPa NW 3.2 km/h 4.8 km/h 39 % 0 mm
17:12 13.6 °C -0.1 °C 1022.9 hPa NNW 3.2 km/h 4.8 km/h 39 % 0 mm
17:17 13.5 °C -0.2 °C 1022.9 hPa Calm   4.8 km/h 39 % 0 mm
17:22 13.4 °C -0.3 °C 1022.9 hPa Calm   4.8 km/h 39 % 0 mm
17:27 13.3 °C 0 °C 1022.9 hPa Calm   4.8 km/h 40 % 0 mm
17:32 13.1 °C -0.2 °C 1022.9 hPa Calm   3.2 km/h 40 % 0 mm
17:42 12.4 °C 0.8 °C 1022.9 hPa Calm   1.6 km/h 45 % 0 mm
17:47 12.1 °C 1.1 °C 1022.9 hPa Calm     47 % 0 mm
17:52 11.6 °C 1.2 °C 1023.2 hPa Calm     49 % 0 mm
17:57 11.2 °C 1.4 °C 1023.2 hPa Calm     51 % 0 mm
18:00 11.1 °C 1.6 °C 1023.2 hPa Calm     52 % 0 mm
18:01 11 °C 1.5 °C 1023.2 hPa Calm     52 % 0 mm
18:04 10.8 °C 1.6 °C 1023.2 hPa Calm     53 % 0 mm
18:09 10.5 °C 1.8 °C 1023.2 hPa Calm     55 % 0 mm
18:14 10.2 °C 1.8 °C 1023.2 hPa Calm     56 % 0 mm
18:19 10 °C 2.1 °C 1023.2 hPa Calm     58 % 0 mm
18:24 9.8 °C 1.9 °C 1023.2 hPa Calm     58 % 0 mm
18:29 9.6 °C 2 °C 1023.2 hPa Calm     59 % 0 mm
18:34 9.4 °C 2 °C 1023.2 hPa Calm     60 % 0 mm
18:39 9.3 °C 1.7 °C 1023.2 hPa Calm     59 % 0 mm
18:44 8.9 °C 1.3 °C 1023.6 hPa Calm     59 % 0 mm
18:49 8.7 °C 1.6 °C 1023.2 hPa Calm     61 % 0 mm
18:54 8.7 °C 2 °C 1023.2 hPa Calm     63 % 0 mm
18:59 8.6 °C 2 °C 1023.6 hPa Calm     63 % 0 mm
19:04 8.4 °C 2.2 °C 1023.6 hPa Calm     65 % 0 mm
19:14 8.4 °C 2.8 °C 1023.6 hPa Calm     68 % 0 mm
19:19 8.2 °C 2.4 °C 1023.6 hPa Calm     67 % 0 mm
19:24 7.9 °C 2.2 °C 1023.6 hPa Calm     67 % 0 mm
19:29 7.7 °C 2.4 °C 1023.6 hPa Calm     69 % 0 mm
19:34 7.7 °C 3 °C 1023.6 hPa Calm     72 % 0 mm
19:39 7.9 °C 3.2 °C 1023.9 hPa Calm     72 % 0 mm
19:44 7.8 °C 2.9 °C 1023.9 hPa Calm     71 % 0 mm
19:49 7.5 °C 2.6 °C 1023.9 hPa Calm     71 % 0 mm
19:54 7.3 °C 2.6 °C 1023.9 hPa Calm     72 % 0 mm
19:59 7.1 °C 2.8 °C 1023.9 hPa Calm     74 % 0 mm
20:04 7.1 °C 3 °C 1023.9 hPa Calm     75 % 0 mm
20:09 7.2 °C 3.1 °C 1023.9 hPa Calm     75 % 0 mm
20:10 7.2 °C 3.1 °C 1023.9 hPa Calm     75 % 0 mm
20:15 7.2 °C 3.1 °C 1023.9 hPa Calm   1.6 km/h 75 % 0 mm
20:20 7.2 °C 3.1 °C 1024.3 hPa Calm   1.6 km/h 75 % 0 mm
20:25 7.2 °C 3.1 °C 1024.3 hPa Calm   1.6 km/h 75 % 0 mm
20:30 7.1 °C 3.2 °C 1024.3 hPa Calm   1.6 km/h 76 % 0 mm
20:35 7.1 °C 3.2 °C 1024.3 hPa Calm     76 % 0 mm
20:40 6.9 °C 3.1 °C 1024.3 hPa Calm     77 % 0 mm
20:45 6.9 °C 3.1 °C 1024.3 hPa Calm     77 % 0 mm
20:50 6.8 °C 3.2 °C 1024.3 hPa Calm     78 % 0 mm
20:55 6.7 °C 3.1 °C 1024.3 hPa Calm     78 % 0 mm
21:00 6.6 °C 3 °C 1024.3 hPa Calm     78 % 0 mm
21:05 6.4 °C 2.8 °C 1024.3 hPa Calm     78 % 0 mm
21:10 6.1 °C 2.4 °C 1024.3 hPa Calm     77 % 0 mm
21:16 5.7 °C 2.2 °C 1024.3 hPa Calm     78 % 0 mm
21:21 5.3 °C 2 °C 1024.6 hPa Calm     79 % 0 mm
21:24 5.4 °C 2.6 °C 1024.6 hPa Calm     82 % 0 mm
21:26 5.4 °C 2.6 °C 1024.6 hPa Calm     82 % 0 mm
21:31 5.6 °C 2.9 °C 1024.6 hPa Calm     83 % 0 mm
21:36 5.8 °C 3.1 °C 1024.9 hPa Calm   1.6 km/h 83 % 0 mm
21:41 5.8 °C 3.1 °C 1024.9 hPa Calm   1.6 km/h 83 % 0 mm
21:46 5.7 °C 3 °C 1024.9 hPa Calm   1.6 km/h 83 % 0 mm
21:51 5.7 °C 3 °C 1024.9 hPa Calm     83 % 0 mm
21:56 5.6 °C 2.9 °C 1024.9 hPa Calm     83 % 0 mm
22:01 5.4 °C 2.9 °C 1024.9 hPa Calm     84 % 0 mm
22:06 5.4 °C 2.9 °C 1024.9 hPa Calm     84 % 0 mm
22:11 5.3 °C 2.8 °C 1024.9 hPa Calm     84 % 0 mm
22:16 5.2 °C 2.9 °C 1024.9 hPa Calm     85 % 0 mm
22:21 5.3 °C 3.1 °C 1025.3 hPa Calm     86 % 0 mm
22:26 5.4 °C 3.2 °C 1024.9 hPa Calm   1.6 km/h 86 % 0 mm
22:31 5.4 °C 3.1 °C 1025.3 hPa Calm   1.6 km/h 85 % 0 mm
22:37 5.3 °C 3 °C 1025.3 hPa Calm   1.6 km/h 85 % 0 mm
22:42 5.1 °C 2.6 °C 1025.3 hPa Calm     84 % 0 mm
22:47 5 °C 2.7 °C 1025.3 hPa Calm     85 % 0 mm
22:52 5.1 °C 3 °C 1025.3 hPa Calm   1.6 km/h 86 % 0 mm
22:57 5.2 °C 2.9 °C 1025.3 hPa Calm   1.6 km/h 85 % 0 mm
23:02 5.2 °C 2.9 °C 1025.3 hPa Calm   1.6 km/h 85 % 0 mm
23:07 5.2 °C 2.9 °C 1025.6 hPa Calm     85 % 0 mm
23:12 5.3 °C 3 °C 1025.6 hPa Calm   1.6 km/h 85 % 0 mm
23:17 5.5 °C 2.8 °C 1025.6 hPa NNW 1.6 km/h 1.6 km/h 83 % 0 mm
23:22 5.7 °C 2.5 °C 1025.6 hPa Calm   1.6 km/h 80 % 0 mm
23:27 5.8 °C 2.4 °C 1025.6 hPa NNW 1.6 km/h 1.6 km/h 79 % 0 mm
23:32 5.8 °C 2.3 °C 1025.6 hPa Calm   1.6 km/h 78 % 0 mm
23:37 5.7 °C 2 °C 1025.6 hPa Calm   1.6 km/h 77 % 0 mm
23:42 5.6 °C 1.7 °C 1025.6 hPa Calm   1.6 km/h 76 % 0 mm
23:47 5.5 °C 1.4 °C 1025.6 hPa Calm   1.6 km/h 75 % 0 mm
23:52 5.4 °C 1.3 °C 1026 hPa Calm     75 % 0 mm
23:57 5.3 °C 1.2 °C 1026 hPa Calm     75 % 0 mm
Spring, Texas: Villages of Bridgestone
Compliments of Weather Underground - 2.75 mb

Script developed by  Jim McMurry - jmcmurry@mwt.net Adapted for the template by  Wim van der Kuil - Leuven-Template.eu

You find our weather info also at:

UK Metoffice

WeatherCloud

Weather Underground

Mid-South Weather Network

AWEKAS

Citizen Weather Observer Program (CWOP)

HAMweather, WeatherForYou, PWS Weather

Equipment we use:

Weather-station
Davis Vantage Vue

Weather-program
Meteohub

Weather-server
Debian 7.9 x86 (Guest)

Provider
DreamHost

Davis Vantage Vue

Meteohub

Debian 7.9 x86 (Guest)

DreamHost